Latest Coastal Weather Observations for Coolangatta

IDQ60701

Issued at 7:35 pm EST Thursday 18 September 2014 (issued every 10 minutes, with the page automatically refreshed every 10 minutes)

About coastal observations | Map of coastal stations | Coastal observations for QLD | Marine services | Other Formats
Station Details ID: 040717 Name: COOLANGATTA Lat: -28.17 Lon: 153.51 Height: 4.0 m
Data from the previous 72 hours. | See also: Recent months at Coolangatta
Date/Time
EST
Temp

°C
Wind Pressure Rain
since 9am
mm
Weather Cloud Vis
km
Sea
Height
m
Swell
Dir
 
Speed
knots
Gust
knots
hPa Trend Height
m
Period
s
Dir
18/07:30pm 14.4 WSW 6 7 1019.0 - 0.0 - - 10 - - - -
18/07:00pm 14.4 WSW 5 6 1018.5 - 0.0 - - 10 - - - -
18/06:30pm 15.7 SE 1 3 1018.2 - 0.0 - - 10 - - - -
18/06:00pm 17.5 E 4 5 1017.8 - 0.0 - - 10 - - - -
18/05:30pm 19.2 ESE 7 10 1017.5 - 0.0 - - 10 - - - -
18/05:00pm 20.1 ESE 7 11 1017.2 - 0.0 - - 10 - - - -
18/04:30pm 20.7 E 10 15 1016.9 - 0.0 - - 10 - - - -
18/04:00pm 21.2 ESE 11 14 1016.4 - 0.0 - - 10 - - - -
18/03:30pm 21.6 E 12 15 1016.2 - 0.0 - - 10 - - - -
18/03:00pm 21.8 ESE 15 18 1016.1 - 0.0 - - 10 - - - -
18/02:30pm 22.3 ENE 12 15 1016.3 - 0.0 - - 10 - - - -
18/02:12pm 23.5 E 15 17 1015.8 - 0.0 - - 10 - - - -
18/02:00pm 25.2 WSW 4 7 1015.8 - 0.0 - - 10 - - - -
18/01:30pm 25.4 SSW 10 15 1016.0 - 0.0 - - 10 - - - -
18/01:00pm 25.2 S 8 16 1016.4 - 0.0 - - 10 - - - -
18/12:30pm 24.5 SSW 10 15 1016.7 - 0.0 - - 10 - - - -
18/12:00pm 24.5 SSW 11 17 1017.2 - 0.0 - - 10 - - - -
18/11:30am 24.4 SSW 7 12 1017.7 - 0.0 - - 10 - - - -
18/11:00am 23.5 S 11 15 1018.2 - 0.0 - - 10 - - - -
18/10:30am 22.8 S 10 16 1018.6 - 0.0 - - 10 - - - -
18/10:00am 22.2 S 14 21 1018.9 - 0.0 - - 10 - - - -
18/09:30am 22.1 S 13 20 1019.1 - 0.0 - - 10 - - - -
18/09:00am 21.4 SW 9 16 1019.4 - 0.0 - - 10 - - - -
18/08:30am 20.9 SSW 7 13 1019.5 - 0.0 - - 10 - - - -
18/08:00am 20.2 S 5 7 1019.3 - 0.0 - - 10 - - - -
18/07:30am 18.7 CALM 0 3 1019.3 - 0.0 - - 10 - - - -
18/07:00am 16.3 CALM 0 0 1019.0 - 0.0 - - 10 - - - -
18/06:30am 13.3 WSW 6 7 1018.5 - 0.0 - - 10 - - - -
18/06:00am 10.2 WSW 2 6 1018.2 - 0.0 - - 10 - - - -
18/05:30am 11.6 SSW 3 4 1017.7 - 0.0 - - 10 - - - -
18/05:00am 12.3 S 3 4 1017.3 - 0.0 - - 10 - - - -
18/04:30am 14.6 S 2 6 1016.7 - 0.0 - - 10 - - - -
18/04:00am 17.1 SSW 4 7 1016.1 - 0.0 - - 10 - - - -
18/03:30am 18.3 SSW 8 12 1015.7 - 0.0 - - 10 - - - -
18/03:00am 18.5 SSW 8 13 1015.4 - 0.0 - - 10 - - - -
18/02:30am 18.9 SW 10 14 1015.1 - 0.0 - - 10 - - - -
18/02:00am 18.8 SW 8 12 1014.8 - 0.0 - - 10 - - - -
18/01:30am 17.2 SSW 5 7 1015.2 - 0.0 - - 10 - - - -
18/01:00am 18.7 S 7 10 1015.2 - 0.0 - - 10 - - - -
18/12:30am 19.4 SSW 8 13 1015.2 - 0.0 - - 10 - - - -
18/12:00am 19.2 SSW 8 11 1015.2 - 0.0 - Partly cloudy 10 - - - -
 
Date/Time
EST
Temp

°C
Wind Pressure Rain
since 9am
mm
Weather Cloud Vis
km
Sea
Height
m
Swell
Dir
 
Speed
knots
Gust
knots
hPa Trend Height
m
Period
s
Dir
17/11:30pm 15.9 S 7 12 1015.2 - 0.0 - - 10 - - - -
17/11:00pm 13.2 SW 3 4 1015.2 - 0.0 - - 10 - - - -
17/10:30pm 14.3 SW 3 4 1015.1 - 0.0 - - 10 - - - -
17/10:00pm 14.5 WSW 3 4 1015.0 - 0.0 - - 10 - - - -
17/09:30pm 15.5 WSW 4 6 1015.0 - 0.0 - - 10 - - - -
17/09:00pm 14.7 SE 1 4 1014.6 - 0.0 - - 10 - - - -
17/08:30pm 15.8 ESE 2 4 1014.3 - 0.0 - - 10 - - - -
17/08:00pm 16.8 CALM 0 2 1014.0 - 0.0 - - 10 - - - -
17/07:30pm 19.1 S 4 5 1013.6 - 0.0 - - 10 - - - -
17/07:00pm 19.3 SW 5 8 1013.1 - 0.0 - - 10 - - - -
17/06:30pm 19.3 S 5 7 1012.5 - 0.0 - - 10 - - - -
17/06:00pm 19.4 S 5 7 1011.9 - 0.0 - - 10 - - - -
17/05:30pm 20.9 SW 5 9 1011.4 - 0.0 - - 10 - - - -
17/05:00pm 22.8 NE 11 14 1010.9 - 0.0 - Partly cloudy 10 - - - -
17/04:30pm 26.7 WNW 8 12 1010.7 - 0.0 - Partly cloudy 10 - - - -
17/04:00pm 27.4 NW 9 16 1010.4 - 0.0 - - 10 - - - -
17/03:30pm 27.9 W 11 17 1010.3 - 0.0 - - 10 - - - -
17/03:00pm 28.0 WNW 10 13 1010.5 - 0.0 - - 10 - - - -
17/02:30pm 27.7 WNW 11 18 1010.6 - 0.0 - - 10 - - - -
17/02:00pm 28.1 NW 12 19 1010.8 - 0.0 - - 10 - - - -
17/01:30pm 27.5 NW 10 12 1011.3 - 0.0 - - 10 - - - -
17/01:00pm 27.1 WNW 9 16 1011.8 - 0.0 - - 10 - - - -
17/12:30pm 26.6 ENE 9 11 1012.1 - 0.0 - - 10 - - - -
17/12:00pm 25.7 ENE 10 13 1012.7 - 0.0 - - 10 - - - -
17/11:30am 25.9 ENE 5 7 1013.3 - 0.0 - - 10 - - - -
17/11:00am 25.3 ENE 7 9 1013.8 - 0.0 - - 10 - - - -
17/10:30am 25.6 NNW 5 9 1014.3 - 0.0 - - 10 - - - -
17/10:00am 24.3 NW 3 7 1014.6 - 0.0 - - 10 - - - -
17/09:30am 24.4 SE 3 7 1014.9 - 0.0 - - 10 - - - -
17/09:00am 23.4 S 5 6 1015.0 - 0.2 - - 10 - - - -
17/08:30am 21.8 NW 5 7 1015.0 - 0.2 - - 10 - - - -
17/08:00am 19.7 SSW 3 6 1015.1 - 0.2 - - 10 - - - -
17/07:30am 18.1 NNW 4 5 1014.9 - 0.2 - - 10 - - - -
17/07:00am 16.0 CALM 0 3 1014.5 - 0.2 - - 10 - - - -
17/06:30am 14.3 SW 3 4 1014.0 - 0.2 - - 10 - - - -
17/06:00am 14.0 CALM 0 3 1013.8 - 0.2 - - 10 - - - -
17/05:30am 14.3 W 4 6 1013.4 - 0.2 - - 10 - - - -
17/05:00am 14.3 WSW 3 5 1013.0 - 0.2 - - 10 - - - -
17/04:30am 14.5 W 1 4 1012.9 - 0.2 - - 10 - - - -
17/04:00am 15.8 NW 5 7 1012.6 - 0.2 - - 10 - - - -
17/03:30am 15.9 WNW 2 6 1012.4 - 0.2 - - 10 - - - -
17/03:00am 16.3 NW 3 7 1012.2 - 0.2 - - 10 - - - -
17/02:30am 17.0 NNW 7 10 1012.3 - 0.2 - - 10 - - - -
17/02:00am 17.8 NW 9 12 1012.6 - 0.2 - - 10 - - - -
17/01:30am 18.1 NW 9 13 1012.7 - 0.2 - - 10 - - - -
17/01:00am 17.9 NW 7 9 1012.7 - 0.2 - - 10 - - - -
17/12:30am 19.0 NNW 8 11 1012.9 - 0.2 - - 10 - - - -
17/12:00am 19.6 NNW 9 15 1012.9 - 0.2 - - 10 - - - -
 
Date/Time
EST
Temp

°C
Wind Pressure Rain
since 9am
mm
Weather Cloud Vis
km
Sea
Height
m
Swell
Dir
 
Speed
knots
Gust
knots
hPa Trend Height
m
Period
s
Dir
16/11:30pm 19.4 NW 9 12 1013.1 - 0.2 - - 10 - - - -
16/11:00pm 19.5 NW 9 16 1013.3 - 0.2 - - 10 - - - -
16/10:30pm 19.4 NNW 8 12 1013.3 - 0.2 - - 10 - - - -
16/10:00pm 19.4 NW 8 12 1013.1 - 0.2 - - 10 - - - -
16/09:30pm 19.8 NNW 9 12 1013.2 - 0.2 - - 10 - - - -
16/09:00pm 20.2 NNW 10 16 1013.1 - 0.2 - - 10 - - - -
16/08:30pm 20.3 NNW 11 15 1013.0 - 0.2 - - 10 - - - -
16/08:00pm 20.2 NNW 11 14 1012.9 - 0.2 - - 10 - - - -
16/07:30pm 20.1 N 9 14 1012.7 - 0.2 - - 8 - - - -
16/07:00pm 20.1 N 11 15 1012.2 - 0.2 - - 10 - - - -
16/06:30pm 20.5 N 12 16 1012.3 - 0.0 - Partly cloudy 10 - - - -
16/06:00pm 20.4 N 16 19 1011.7 - 0.0 - Partly cloudy 10 - - - -
16/05:30pm 20.9 N 13 17 1011.8 - 0.0 - Partly cloudy 10 - - - -
16/05:00pm 20.9 N 14 19 1011.2 - 0.0 - - 10 - - - -
16/04:30pm 21.7 N 19 26 1011.0 - 0.0 - - 10 - - - -
16/04:00pm 22.4 N 18 24 1011.0 - 0.0 - - 10 - - - -
16/03:30pm 22.8 N 19 24 1010.9 - 0.0 - - 10 - - - -
16/03:00pm 22.8 N 20 25 1010.9 - 0.0 - - 10 - - - -
16/02:30pm 23.1 N 18 23 1011.2 - 0.0 - - 10 - - - -
16/02:00pm 23.6 N 19 24 1011.4 - 0.0 - - 10 - - - -
16/01:30pm 23.4 N 18 24 1012.0 - 0.0 - - 10 - - - -
16/01:00pm 23.8 N 15 19 1012.6 - 0.0 - - 10 - - - -
16/12:30pm 24.2 N 17 23 1013.1 - 0.0 - - 10 - - - -
16/12:00pm 23.5 N 17 22 1013.7 - 0.0 - - 10 - - - -
16/11:30am 23.4 N 18 22 1014.3 - 0.0 - - 10 - - - -
16/11:00am 23.7 N 17 22 1014.7 - 0.0 - - 10 - - - -
16/10:30am 22.4 N 16 20 1015.4 - 0.0 - - 10 - - - -
16/10:00am 22.9 N 17 21 1015.7 - 0.0 - - 10 - - - -
16/09:30am 22.2 N 17 20 1016.1 - 0.0 - - 10 - - - -
16/09:00am 21.1 N 15 19 1016.4 - 1.0 - - 10 - - - -
16/08:30am 21.0 N 11 15 1016.6 - 1.0 - - 10 - - - -
16/08:00am 19.8 NNW 9 12 1016.8 - 1.0 - - 10 - - - -
16/07:30am 19.1 NNW 8 11 1016.7 - 1.0 - - 10 - - - -
16/07:00am 18.0 NNW 8 11 1016.4 - 1.0 - - 10 - - - -
16/06:30am 17.2 NW 7 9 1016.2 - 1.0 - - 10 - - - -
16/06:00am 16.5 NNW 6 9 1016.1 - 1.0 - - 10 - - - -
16/05:30am 16.5 NNW 6 9 1016.0 - 1.0 - - 10 - - - -
16/05:00am 15.8 NNW 4 7 1015.8 - 1.0 - - 10 - - - -
16/04:30am 15.4 WNW 4 6 1015.9 - 1.0 - - 10 - - - -
16/04:00am 15.1 W 4 5 1015.8 - 1.0 - - 10 - - - -
16/03:30am 14.9 NW 4 5 1015.6 - 1.0 - - 10 - - - -
16/03:00am 15.1 NW 3 4 1015.5 - 1.0 - - 10 - - - -
16/02:30am 15.8 NW 4 5 1015.5 - 1.0 - - 10 - - - -
16/02:00am 17.0 NNW 6 7 1015.6 - 1.0 - - 10 - - - -
16/01:30am 17.0 N 5 6 1015.8 - 1.0 - Partly cloudy 10 - - - -
16/01:00am 17.0 N 5 6 1016.1 - 1.0 - Cloudy 10 - - - -
16/12:30am 16.8 N 5 5 1016.4 - 1.0 - Cloudy 10 - - - -
16/12:00am 16.6 NNW 4 5 1016.6 - 1.0 - Mostly cloudy 10 - - - -
 
Date/Time
EST
Temp

°C
Wind Pressure Rain
since 9am
mm
Weather Cloud Vis
km
Sea
Height
m
Swell
Dir
 
Speed
knots
Gust
knots
hPa Trend Height
m
Period
s
Dir
15/11:30pm 17.0 NW 3 4 1016.9 - 1.0 - Partly cloudy 10 - - - -
15/11:00pm 17.0 NW 5 6 1016.7 - 1.0 - Partly cloudy 10 - - - -
15/10:30pm 17.0 NW 6 8 1016.6 - 1.0 - Partly cloudy 10 - - - -
15/10:00pm 17.2 NW 7 8 1016.7 - 1.0 - Partly cloudy 10 - - - -
15/09:30pm 17.6 NW 7 9 1016.6 - 1.0 - Partly cloudy 10 - - - -
15/09:00pm 17.5 WNW 7 8 1016.7 - 1.0 - Cloudy 10 - - - -
15/08:30pm 17.5 WNW 8 11 1016.6 - 1.0 - - 10 - - - -
15/08:00pm 17.1 WNW 6 8 1016.4 - 1.0 - Partly cloudy 10 - - - -

Other Formats:

Comma delimited format used in spreadsheet applications
http://www.bom.gov.au/fwo/IDQ60701/IDQ60701.94592.axf

JavaScript Object Notation format (JSON) in row-major order
http://www.bom.gov.au/fwo/IDQ60701/IDQ60701.94592.json